Weather History for Hot Springs, AR

Change the Weather History Date:

Friday, May 10, 2013

  Actual Average Record
Temperature  
Mean Temperature 70 °F -  
Max Temperature 79 °F 79 °F 90 °F (1987)
Min Temperature 62 °F 53 °F 41 °F (1990)
Cooling Degree Days 5    
Growing Degree Days 20 (Base 50)    
Moisture  
Dew Point 62 °F    
Average Humidity 87    
Maximum Humidity 100    
Minimum Humidity 54    
Precipitation  
Precipitation 0.40 in - - ()
Sea Level Pressure  
Sea Level Pressure 29.94 in    
Wind  
Wind Speed 2 mph (WSW)    
Max Wind Speed 16 mph    
Max Gust Speed 28 mph    
Visibility 8 miles    
Events Rain , Thunderstorm    
Averages and records for this station are not official NWS values.
T = Trace of Precipitation, MM = Missing Value Source: NWS Daily Summary

Daily Weather History Graph

Daily Weather History Graph

Search for Another Location

Airport:

Trip Planner

Search our weather history database for the weather conditions in past years. The results will help you decide how hot, cold, wet, or windy it might be!

Date:

Astronomy

May. 10, 2013 Rise Set
Actual Time 6:13 AM CDT 8:04 PM CDT
Civil Twilight 5:46 AM CDT 8:31 PM CDT
Nautical Twilight 5:12 AM CDT 9:05 PM CDT
Astronomical Twilight 4:37 AM CDT 9:40 PM CDT
Moon 6:38 AM CDT (5/10) 8:53 PM CDT (5/10)
Length of Visible Light 14h 45m
Length of Day
13h 50m
New Moon, 0% of the Moon is Illuminated
May 10
New Moon
May 17
First Quarter
May 24
Full
May 31
Last Quarter
Jun 8
New

Hourly Weather History & Observations

Time (CDT) Temp. Dew Point Humidity Pressure Visibility Wind Dir Wind Speed Gust Speed Precip Events Conditions
12:20 AM 64.4 °F 62.6 °F 94% 29.98 in 10.0 mi Calm Calm - 0.03 in   Overcast
12:29 AM 64.4 °F 62.6 °F 94% 29.98 in 10.0 mi Calm Calm - 0.04 in   Overcast
12:38 AM 64.4 °F 62.6 °F 94% 29.98 in 10.0 mi Calm Calm - 0.05 in   Overcast
12:53 AM 64.4 °F 62.6 °F 94% 29.97 in 10.0 mi NNE 3.5 mph - N/A   Overcast
1:11 AM 64.4 °F 62.6 °F 94% 29.95 in 10.0 mi Calm Calm - 0.02 in   Overcast
1:53 AM 64.0 °F 62.1 °F 93% 29.91 in 10.0 mi SE 3.5 mph - 0.05 in   Mostly Cloudy
2:53 AM 63.0 °F 62.1 °F 97% 29.90 in 6.0 mi Calm Calm - 0.01 in   Overcast
3:53 AM 63.0 °F 62.1 °F 97% 29.90 in 7.0 mi Calm Calm - 0.00 in   Overcast
4:07 AM 62.6 °F 62.6 °F 100% 29.91 in 7.0 mi Calm Calm - N/A   Overcast
4:53 AM 63.0 °F 62.1 °F 97% 29.89 in 6.0 mi Calm Calm - N/A   Overcast
5:53 AM 63.0 °F 62.1 °F 97% 29.90 in 6.0 mi West 3.5 mph - N/A   Mostly Cloudy
6:07 AM 62.6 °F 62.6 °F 100% 29.92 in 8.0 mi Calm Calm - N/A   Overcast
6:53 AM 62.6 °F 62.6 °F 100% 29.94 in 7.0 mi Calm Calm - N/A   Mostly Cloudy
7:20 AM 62.6 °F 62.6 °F 100% 29.95 in 5.0 mi Calm Calm - N/A   Overcast
7:35 AM 64.4 °F 62.6 °F 94% 29.95 in 4.0 mi WNW 3.5 mph - N/A   Mostly Cloudy
7:45 AM 64.4 °F 62.6 °F 94% 29.96 in 9.0 mi WNW 3.5 mph - N/A   Scattered Clouds
7:53 AM 64.0 °F 63.0 °F 96% 29.94 in 10.0 mi West 4.6 mph - N/A   Scattered Clouds
8:04 AM 64.4 °F 62.6 °F 94% 29.95 in 8.0 mi WSW 4.6 mph - N/A   Mostly Cloudy
8:53 AM 64.9 °F 63.0 °F 93% 29.94 in 10.0 mi West 4.6 mph - N/A   Overcast
9:11 AM 66.2 °F 62.6 °F 88% 29.95 in 10.0 mi SW 4.6 mph - N/A   Overcast
9:34 AM 66.2 °F 62.6 °F 88% 29.96 in 10.0 mi SSW 4.6 mph - N/A   Overcast
9:53 AM 68.0 °F 63.0 °F 84% 29.95 in 10.0 mi Calm Calm - N/A   Overcast
10:53 AM 72.0 °F 64.0 °F 76% 29.93 in 10.0 mi NNW 8.1 mph - N/A   Clear
11:53 AM 75.0 °F 63.0 °F 66% 29.94 in 10.0 mi Calm Calm - N/A   Clear
12:53 PM 77.0 °F 61.0 °F 58% 29.94 in 10.0 mi NW 4.6 mph - N/A   Scattered Clouds
1:53 PM 78.1 °F 61.0 °F 56% 29.92 in 10.0 mi WNW 5.8 mph - N/A Thunderstorm Clear
2:12 PM 78.8 °F 60.8 °F 54% 29.93 in 10.0 mi NW 3.5 mph - N/A   Mostly Cloudy
2:38 PM 71.6 °F 62.6 °F 73% 29.94 in 2.5 mi SSW 16.1 mph 27.6 mph 0.01 in Rain , Thunderstorm Light Thunderstorms and Rain
2:45 PM 68.0 °F 62.6 °F 83% 29.94 in 1.2 mi South 10.4 mph 27.6 mph 0.04 in Rain , Thunderstorm Heavy Thunderstorms and Rain
2:50 PM 66.2 °F 62.6 °F 88% 29.94 in 2.5 mi South 5.8 mph - 0.05 in Rain Light Rain
2:53 PM 66.9 °F 62.1 °F 84% 29.93 in 4.0 mi Variable 4.6 mph - 0.07 in Rain Rain
3:03 PM 66.2 °F 62.6 °F 88% 29.95 in 6.0 mi SSW 6.9 mph - 0.03 in Rain , Thunderstorm Rain
3:10 PM 66.2 °F 62.6 °F 88% 29.95 in 1.8 mi South 9.2 mph - 0.05 in Rain , Thunderstorm Heavy Rain
3:19 PM 66.2 °F 62.6 °F 88% 29.95 in 3.0 mi SW 4.6 mph - 0.08 in Rain Light Rain
3:53 PM 66.9 °F 64.9 °F 93% 29.93 in 10.0 mi South 3.5 mph - 0.16 in Rain Light Rain
4:53 PM 69.1 °F 66.0 °F 90% 29.90 in 10.0 mi NW 3.5 mph - 0.08 in   Mostly Cloudy
5:53 PM 72.0 °F 64.9 °F 78% 29.89 in 10.0 mi Variable 3.5 mph - 0.03 in   Clear
6:53 PM 71.1 °F 60.1 °F 68% 29.89 in 10.0 mi WNW 5.8 mph - N/A   Clear
7:53 PM 68.0 °F 61.0 °F 78% 29.92 in 10.0 mi West 3.5 mph - N/A   Clear
8:53 PM 64.9 °F 61.0 °F 87% 29.93 in 10.0 mi Calm Calm - N/A   Clear
9:53 PM 64.0 °F 62.1 °F 93% 29.97 in 10.0 mi Calm Calm - N/A   Clear
10:53 PM 63.0 °F 61.0 °F 93% 29.99 in 10.0 mi WNW 3.5 mph - N/A   Clear
11:53 PM 63.0 °F 61.0 °F 93% 30.01 in 10.0 mi West 3.5 mph - N/A   Clear